Tracking 30918 objects as of 3-Jul-2025
HD Live streaming from Space Station
objects crossing your sky now

LANDSAT 2

Track LANDSAT 2 now!
10-day predictions
LANDSAT 2 is classified as:


NORAD ID: 7615
Int'l Code: 1975-004A
Perigee: 905.4 km
Apogee: 917.8 km
Inclination: 99.0 °
Period: 103.1 minutes
Semi major axis: 7282 km
RCS: 3.0869 m2 (large)
Launch date: January 22, 1975
Source: United States (US)
Launch site: AIR FORCE WESTERN TEST RANGE (AFWTR)
Your satellite tracking list
USA 142
Track 1 satellite(s)




NASA's NSSDC Master Catalog

Two Line Element Set (TLE):
1 07615U 75004A   25183.49428558 -.00000200  00000-0 -11240-3 0  9994
2 07615  98.9872 140.5101 0008535 185.3120 174.7954 13.96926883570304
Source of the keplerian elements: AFSPC